Weather History for KHKS - June, 2013

Change the Weather History Date:

Sunday, June 30, 2013

  Actual Average (KJAN) Record (KJAN)
Temperature  
Mean Temperature 78 °F 81 °F  
Max Temperature 88 °F 91 °F 103 °F (1902)
Min Temperature 70 °F 71 °F 54 °F (1923)
Degree Days  
Heating Degree Days 0 0  
Month to date heating degree days 0  
Since 1 June heating degree days 0  
Since 1 July heating degree days 2391  
Cooling Degree Days 14 16  
Month to date cooling degree days 422  
Year to date cooling degree days 780  
Since 1 June cooling degree days 422  
Growing Degree Days 28 (Base 50)    
Moisture  
Dew Point 65 °F    
Average Humidity 65    
Maximum Humidity 87    
Minimum Humidity 43    
Precipitation  
Precipitation 0.00 in 0.15 in 2.02 in (2010)
Month to date precipitation 4.12  
Year to date precipitation 28.23  
Sea Level Pressure  
Sea Level Pressure 29.76 in    
Wind  
Wind Speed 3 mph (NW)    
Max Wind Speed 13 mph    
Max Gust Speed 21 mph    
Visibility 10 miles    
Events      
T = Trace of Precipitation, MM = Missing Value Source: NWS Daily Summary

Daily Weather History Graph

Daily Weather History Graph

Search for Another Location

Airport or City:

Trip Planner

Search our weather history database for the weather conditions in past years. The results will help you decide how hot, cold, wet, or windy it might be!

Date:

Astronomy

Jun. 30, 2013 Rise Set
Actual Time 5:57 AM CDT 8:11 PM CDT
Civil Twilight 5:28 AM CDT 8:40 PM CDT
Nautical Twilight 4:54 AM CDT 9:14 PM CDT
Astronomical Twilight 4:16 AM CDT 9:52 PM CDT
Moon 12:39 AM CDT (6/30) 1:41 PM CDT (6/30)
Length of Visible Light 15h 11m
Length of Day
14h 14m
Last Quarter, 45% of the Moon is Illuminated
Jun 30
Last Quarter
Jul 8
New
Jul 15
First Quarter
Jul 22
Full
Jul 29
Last Quarter

Hourly Weather History & Observations

Time (CDT) Temp. Heat Index Dew Point Humidity Pressure Visibility Wind Dir Wind Speed Gust Speed Precip Events Conditions
12:53 AM 72.0 °F - 66.9 °F 84% 29.74 in 10.0 mi Calm Calm - N/A   Clear
1:53 AM 70.0 °F - 66.0 °F 87% 29.73 in 10.0 mi Calm Calm - 0.00 in   Clear
2:53 AM 70.0 °F - 66.0 °F 87% 29.73 in 10.0 mi Calm Calm - N/A   Clear
3:53 AM 72.0 °F - 64.9 °F 78% 29.72 in 10.0 mi WNW 3.5 mph - N/A   Partly Cloudy
4:53 AM 70.0 °F - 64.9 °F 84% 29.72 in 10.0 mi Calm Calm - N/A   Clear
5:53 AM 70.0 °F - 64.9 °F 84% 29.73 in 10.0 mi Calm Calm - N/A   Clear
6:53 AM 70.0 °F - 66.0 °F 87% 29.73 in 10.0 mi Calm Calm - N/A   Partly Cloudy
7:53 AM 75.0 °F - 68.0 °F 79% 29.75 in 10.0 mi Calm Calm - N/A   Partly Cloudy
8:53 AM 78.1 °F - 68.0 °F 71% 29.75 in 10.0 mi NW 3.5 mph - N/A   Scattered Clouds
9:53 AM 82.9 °F 85.0 °F 66.0 °F 56% 29.75 in 10.0 mi North 3.5 mph - N/A   Partly Cloudy
10:53 AM 84.9 °F 87.1 °F 66.0 °F 53% 29.75 in 10.0 mi NNW 6.9 mph - N/A   Scattered Clouds
11:53 AM 84.9 °F 86.1 °F 64.0 °F 49% 29.76 in 10.0 mi NW 11.5 mph - N/A   Scattered Clouds
12:53 PM 86.0 °F 87.3 °F 64.0 °F 48% 29.76 in 10.0 mi NNW 8.1 mph - N/A   Clear
1:53 PM 87.1 °F 88.3 °F 64.0 °F 46% 29.74 in 10.0 mi WNW 10.4 mph - N/A   Clear
2:53 PM 87.1 °F 87.5 °F 62.1 °F 43% 29.75 in 10.0 mi NW 10.4 mph 19.6 mph N/A   Clear
3:53 PM 87.1 °F 87.8 °F 63.0 °F 44% 29.75 in 10.0 mi North 9.2 mph - N/A   Partly Cloudy
4:53 PM 84.9 °F 85.9 °F 63.0 °F 48% 29.75 in 10.0 mi NW 12.7 mph 20.7 mph N/A   Partly Cloudy
5:53 PM 84.9 °F 85.9 °F 63.0 °F 48% 29.76 in 10.0 mi NNW 8.1 mph - N/A   Partly Cloudy
6:53 PM 82.9 °F 84.0 °F 63.0 °F 51% 29.76 in 10.0 mi NW 8.1 mph 17.3 mph N/A   Clear
7:53 PM 79.0 °F - 63.0 °F 58% 29.77 in 10.0 mi NNW 4.6 mph - N/A   Clear
8:53 PM 77.0 °F - 64.0 °F 64% 29.79 in 10.0 mi Calm Calm - N/A   Clear
9:53 PM 75.0 °F - 64.0 °F 69% 29.81 in 10.0 mi NW 3.5 mph - N/A   Clear
10:53 PM 73.0 °F - 64.0 °F 73% 29.81 in 10.0 mi NW 3.5 mph - N/A   Clear
11:53 PM 71.1 °F - 64.0 °F 78% 29.82 in 10.0 mi NW 3.5 mph - N/A   Clear